GW4121 Weather Reports


time (UTC)temp
C
wind
direction
speed
KPH
gust
KPH
rain 1hr
cm
rain 24hr
cm
rain mn
cm
humidity
%
barometer
mb
20260507070010 14 256 3.2 9.7 0.00 0.20 0.03 82 1013.3
20260507065505 14 245 4.8 12.9 0.00 0.20 0.03 82 1013.3
20260507065005 14 245 6.4 12.9 0.00 0.20 0.03 82 1013.2
20260507064504 14 249 4.8 11.3 0.00 0.20 0.03 81 1013.3
20260507064216 14 243 4.8 11.3 0.00 0.20 0.03 82 1013.2
20260507063504 14 232 3.2 9.7 0.00 0.20 0.03 83 1013.0
20260507063004 14 231 3.2 9.7 0.00 0.20 0.03 83 1013.0
20260507062506 13 228 3.2 11.3 0.00 0.20 0.03 84 1013.1
20260507062004 13 217 3.2 11.3 0.00 0.20 0.03 85 1012.9
20260507061504 13 92 1.6 8.0 0.00 0.20 0.03 88 1013.0
20260507061004 13 112 1.6 6.4 0.00 0.20 0.03 89 1012.9
20260507060504 13 141 1.6 6.4 0.00 0.20 0.03 90 1013.0
20260507060005 13 237 0.0 3.2 0.00 0.20 0.03 89 1013.0
20260507055504 13 131 0.0 1.6 0.00 0.20 0.03 89 1012.9
20260507055005 13 135 0.0 3.2 0.00 0.20 0.03 89 1013.1
20260507054504 13 314 1.6 8.0 0.00 0.20 0.03 89 1013.0
20260507054006 12 313 1.6 8.0 0.00 0.20 0.03 89 1012.9
20260507053504 12 311 1.6 8.0 0.00 0.20 0.03 91 1012.7
20260507053005 12 340 0.0 3.2 0.00 0.20 0.03 90 1012.8
20260507052505 12 314 1.6 4.8 0.00 0.20 0.03 90 1012.7
20260507052004 12 310 1.6 6.4 0.00 0.20 0.03 90 1012.7
20260507051506 12 309 1.6 6.4 0.00 0.20 0.03 91 1012.7
20260507051004 12 0 0.0 0.0 0.00 0.20 0.03 91 1012.7
20260507050504 12 0 0.0 0.0 0.00 0.20 0.03 91 1012.6
20260507050008 12 302 1.6 6.4 0.00 0.20 0.03 91 1012.5
20260507045504 12 315 1.6 8.0 0.00 0.20 0.03 91 1012.5
20260507045004 11 326 1.6 8.0 0.00 0.20 0.03 92 1012.4
20260507044504 11 0 0.0 0.0 0.00 0.20 0.03 92 1012.4
20260507044004 11 343 0.0 1.6 0.00 0.20 0.03 92 1012.4
20260507043504 11 352 0.0 1.6 0.00 0.20 0.03 92 1012.2
20260507043006 11 81 0.0 3.2 0.00 0.20 0.03 91 1012.3
20260507042504 11 84 0.0 3.2 0.00 0.20 0.03 92 1012.1
20260507042004 11 89 0.0 1.6 0.00 0.20 0.03 91 1012.1
20260507041504 12 325 1.6 4.8 0.00 0.20 0.03 91 1012.1
20260507041004 12 325 1.6 4.8 0.00 0.20 0.03 91 1012.0
20260507040504 12 324 0.0 4.8 0.00 0.20 0.03 91 1012.0
20260507040216 12 318 0.0 3.2 0.00 0.20 0.03 91 1012.1
20260507035504 12 322 1.6 6.4 0.00 0.20 0.03 90 1012.0
20260507035004 12 326 3.2 6.4 0.00 0.20 0.03 90 1012.1
20260507034504 12 338 1.6 6.4 0.00 0.20 0.03 90 1012.0
20260507034004 12 90 0.0 3.2 0.00 0.20 0.03 90 1012.0
20260507033504 12 16 1.6 3.2 0.00 0.20 0.03 90 1012.1
20260507033005 12 13 1.6 3.2 0.00 0.20 0.03 90 1012.1
20260507032717 12 25 1.6 3.2 0.00 0.20 0.03 90 1012.0
20260507032005 12 347 3.2 6.4 0.00 0.20 0.03 90 1011.9
20260507031504 12 351 3.2 6.4 0.00 0.20 0.03 90 1012.0
20260507031006 12 3 1.6 3.2 0.00 0.20 0.03 89 1011.9
20260507030504 12 38 1.6 4.8 0.00 0.20 0.03 89 1011.8
20260507030004 12 159 3.2 9.7 0.00 0.20 0.03 89 1011.8
20260507025506 12 152 3.2 9.7 0.00 0.20 0.03 89 1011.9
20260507025004 12 344 1.6 8.0 0.00 0.20 0.03 90 1011.8
20260507024505 12 318 3.2 8.0 0.00 0.20 0.03 89 1011.8
20260507024004 12 305 1.6 8.0 0.00 0.20 0.03 90 1011.8
20260507023504 12 146 1.6 8.0 0.00 0.20 0.03 90 1012.0
20260507023215 12 112 1.6 8.0 0.00 0.20 0.03 90 1011.9
20260507022504 12 11 1.6 3.2 0.00 0.20 0.03 90 1011.9
20260507022005 12 330 1.6 4.8 0.00 0.20 0.03 90 1011.9
20260507021504 12 2 1.6 4.8 0.00 0.20 0.03 90 1011.9
20260507021004 12 39 0.0 1.6 0.00 0.20 0.03 89 1011.9
20260507020504 12 287 0.0 1.6 0.00 0.20 0.03 90 1011.9
20260507020006 12 117 0.0 3.2 0.00 0.20 0.03 89 1011.9
20260507015504 12 23 0.0 3.2 0.00 0.20 0.03 89 1012.0
20260507015004 12 337 0.0 1.6 0.00 0.20 0.03 88 1012.1
20260507014504 12 23 0.0 4.8 0.00 0.20 0.03 87 1012.0
20260507014006 12 311 1.6 4.8 0.00 0.20 0.03 86 1011.9
20260507013504 13 303 1.6 11.3 0.00 0.20 0.03 86 1011.8
20260507013004 13 299 3.2 11.3 0.00 0.20 0.03 86 1011.9
20260507012504 13 228 4.8 20.9 0.00 0.20 0.03 86 1011.9
20260507012006 13 188 4.8 20.9 0.00 0.20 0.03 86 1011.8
20260507011504 13 182 4.8 14.5 0.00 0.20 0.03 86 1011.8
20260507011004 12 118 3.2 14.5 0.00 0.20 0.03 86 1011.8
20260507010504 12 118 1.6 6.4 0.00 0.20 0.03 86 1011.7
20260507010005 13 120 1.6 6.4 0.00 0.20 0.03 85 1011.7
20260507005504 12 100 1.6 4.8 0.00 0.20 0.03 87 1011.7
20260507005006 12 335 1.6 6.4 0.00 0.20 0.03 88 1011.9
20260507004504 13 349 1.6 6.4 0.00 0.20 0.03 87 1011.9
20260507004006 13 145 1.6 4.8 0.00 0.20 0.03 86 1012.0
20260507003504 13 124 1.6 4.8 0.00 0.20 0.03 85 1012.1
20260507003004 13 342 1.6 4.8 0.00 0.20 0.03 85 1012.1
20260507002504 13 287 3.2 14.5 0.03 0.20 0.03 85 1012.1
20260507002004 13 287 3.2 14.5 0.03 0.20 0.03 85 1012.2
20260507001715 13 288 1.6 14.5 0.03 0.20 0.03 86 1012.3
20260507001006 13 330 1.6 4.8 0.03 0.20 0.03 88 1012.3
20260507000504 13 315 1.6 6.4 0.03 0.20 0.03 87 1012.2
20260507000005 13 304 1.6 6.4 0.03 0.20 0.03 87 1012.2
20260506235504 13 329 3.2 9.7 0.03 0.20 0.03 88 1012.1
20260506235215 13 324 3.2 9.7 0.03 0.20 0.03 88 1012.2
20260506234506 13 276 1.6 8.0 0.03 0.20 0.03 88 1012.1
20260506234004 13 316 1.6 8.0 0.03 0.20 0.03 86 1011.9
20260506233504 13 312 3.2 12.9 0.03 0.20 0.03 86 1011.9
20260506233004 13 289 3.2 12.9 0.03 0.20 0.03 85 1012.2
20260506232504 13 274 3.2 9.7 0.00 0.18 0.00 85 1012.3
20260506232004 13 278 4.8 12.9 0.00 0.18 0.00 85 1012.2
20260506231504 13 274 4.8 16.1 0.00 0.18 0.00 84 1012.2
20260506231005 13 299 4.8 19.3 0.00 0.18 0.00 85 1012.4
20260506230506 13 309 4.8 19.3 0.00 0.18 0.00 85 1012.5
20260506230004 13 321 4.8 16.1 0.00 0.18 0.00 85 1012.3
20260506225504 13 40 3.2 16.1 0.00 0.18 0.00 86 1012.2
20260506225007 13 139 1.6 4.8 0.00 0.18 0.00 87 1012.1
20260506224505 13 162 1.6 4.8 0.00 0.18 0.00 89 1012.1
20260506224004 13 81 1.6 8.0 0.00 0.18 0.00 88 1012.0
20260506223504 13 27 1.6 8.0 0.00 0.18 0.00 88 1012.0
20260506223004 13 320 3.2 14.5 0.00 0.18 0.00 88 1011.9
20260506222504 13 321 1.6 14.5 0.00 0.18 0.00 88 1011.9
20260506222004 13 7 0.0 8.0 0.00 0.18 0.00 89 1011.8
20260506221504 13 353 1.6 8.0 0.00 0.18 0.00 88 1011.7
20260506221004 13 335 1.6 4.8 0.00 0.18 0.00 88 1011.7
20260506220808 13 333 1.6 4.8 0.00 0.18 0.00 88 1011.7
20260506220504 13 308 1.6 6.4 0.00 0.18 0.00 88 1011.6
20260506215504 13 358 1.6 8.0 0.00 0.18 0.18 87 1011.6
20260506215004 13 8 1.6 4.8 0.03 0.18 0.18 87 1011.7
20260506214504 13 355 1.6 3.2 0.03 0.18 0.18 88 1011.7
20260506214004 13 256 1.6 9.7 0.03 0.18 0.18 87 1011.7
20260506213504 14 309 4.8 20.9 0.03 0.18 0.18 85 1011.6
20260506213218 14 318 6.4 20.9 0.03 0.18 0.18 85 1011.5
20260506212505 14 299 6.4 16.1 0.03 0.18 0.18 85 1011.4
20260506212004 14 282 6.4 14.5 0.03 0.18 0.18 85 1011.5
20260506211504 14 276 3.2 12.9 0.03 0.18 0.18 87 1011.6
20260506211006 14 246 3.2 12.9 0.03 0.18 0.18 87 1011.5
20260506210504 14 267 3.2 12.9 0.03 0.18 0.18 86 1011.6
20260506210006 14 292 3.2 9.7 0.03 0.18 0.18 87 1011.4
20260506205504 15 263 3.2 11.3 0.03 0.18 0.18 86 1011.6
20260506205004 15 295 4.8 19.3 0.00 0.15 0.15 86 1011.5
20260506204504 15 304 6.4 22.5 0.00 0.15 0.15 85 1011.5
20260506204006 15 302 6.4 22.5 0.00 0.15 0.15 85 1011.2
20260506203506 14 304 4.8 17.7 0.00 0.15 0.15 86 1011.2
20260506203004 14 302 3.2 16.1 0.03 0.15 0.15 88 1011.1
20260506202505 14 310 3.2 14.5 0.03 0.15 0.15 88 1011.0
20260506202004 14 311 3.2 14.5 0.05 0.15 0.15 89 1010.9
20260506201504 14 288 1.6 11.3 0.05 0.15 0.15 89 1011.0
20260506201004 14 112 1.6 11.3 0.05 0.15 0.15 89 1011.0
20260506200505 14 339 4.8 12.9 0.05 0.15 0.15 87 1010.9
20260506200005 14 307 4.8 12.9 0.05 0.15 0.15 87 1010.9
20260506195506 14 310 3.2 12.9 0.05 0.15 0.15 87 1010.9
20260506195005 14 323 4.8 11.3 0.05 0.15 0.15 87 1010.8
20260506194504 15 319 8.0 17.7 0.05 0.15 0.15 87 1010.8
20260506194004 15 311 8.0 17.7 0.05 0.15 0.15 86 1010.9
20260506193716 15 293 8.0 17.7 0.05 0.15 0.15 85 1010.9
20260506193004 15 289 8.0 20.9 0.03 0.15 0.15 85 1010.9
20260506192504 15 306 6.4 20.9 0.03 0.15 0.15 84 1010.8
20260506192005 15 315 4.8 12.9 0.00 0.13 0.13 84 1010.8
20260506191503 15 317 4.8 11.3 0.00 0.13 0.13 84 1010.5
20260506191004 15 312 4.8 9.7 0.00 0.13 0.13 85 1010.3
20260506190504 15 329 3.2 9.7 0.00 0.13 0.13 86 1010.4
20260506190006 14 37 1.6 6.4 0.00 0.13 0.13 87 1010.3
20260506185504 14 131 1.6 3.2 0.00 0.13 0.13 88 1010.2
20260506185005 14 125 1.6 3.2 0.00 0.15 0.13 88 1010.3
20260506184504 14 64 1.6 6.4 0.00 0.15 0.13 87 1010.2
20260506184004 14 59 3.2 8.0 0.00 0.15 0.13 87 1010.2
20260506183504 14 81 3.2 8.0 0.00 0.15 0.13 88 1010.1
20260506183005 14 118 3.2 6.4 0.00 0.15 0.13 89 1010.1
20260506182504 14 111 3.2 6.4 0.00 0.15 0.13 88 1010.0
20260506182005 14 101 1.6 6.4 0.00 0.15 0.13 87 1010.0
20260506181714 15 88 1.6 6.4 0.00 0.18 0.13 86 1010.1
20260506181217 15 131 1.6 8.0 0.00 0.23 0.13 86 1010.1
20260506180504 15 103 1.6 6.4 0.00 0.23 0.13 85 1010.0
20260506180006 15 87 1.6 11.3 0.00 0.23 0.13 84 1010.1
20260506175504 15 4 3.2 11.3 0.00 0.23 0.13 84 1010.1
20260506175006 15 325 3.2 14.5 0.00 0.23 0.13 83 1009.9
20260506174504 15 341 6.4 20.9 0.00 0.23 0.13 83 1009.8
20260506174004 15 334 9.7 20.9 0.00 0.23 0.13 83 1009.8
20260506173504 15 322 9.7 19.3 0.00 0.25 0.13 83 1009.8
20260506173006 15 313 8.0 19.3 0.00 0.25 0.13 83 1009.9
20260506172504 15 310 9.7 22.5 0.00 0.25 0.13 83 1010.1
20260506172006 15 316 9.7 22.5 0.00 0.25 0.13 83 1009.8
20260506171504 15 316 6.4 22.5 0.00 0.25 0.13 84 1009.9
20260506171217 15 314 4.8 19.3 0.00 0.25 0.13 83 1009.9
20260506170504 15 303 6.4 12.9 0.00 0.25 0.13 84 1010.0
20260506170005 15 310 4.8 9.7 0.00 0.25 0.13 84 1009.9
20260506165504 15 315 3.2 11.3 0.00 0.25 0.13 84 1009.9
20260506165005 15 303 4.8 14.5 0.00 0.25 0.13 85 1009.9
20260506164505 15 300 4.8 14.5 0.00 0.25 0.13 85 1010.0
20260506164004 15 307 4.8 12.9 0.00 0.25 0.13 85 1010.0
20260506163718 15 311 4.8 14.5 0.00 0.25 0.13 85 1010.1
20260506163005 15 327 4.8 14.5 0.00 0.25 0.13 85 1010.2
20260506162714 15 321 3.2 9.7 0.00 0.25 0.13 85 1010.2
20260506162006 15 313 3.2 9.7 0.00 0.25 0.13 85 1010.3
20260506161506 15 318 4.8 11.3 0.00 0.25 0.13 85 1010.2
20260506161004 15 322 3.2 11.3 0.00 0.25 0.13 85 1010.3
20260506160504 15 315 3.2 9.7 0.00 0.25 0.13 86 1010.3
20260506160007 15 324 4.8 17.7 0.00 0.25 0.13 86 1010.3
20260506155717 15 333 6.4 17.7 0.00 0.25 0.13 86 1010.4
20260506155005 15 325 3.2 16.1 0.00 0.25 0.13 86 1010.4
20260506154504 15 310 3.2 14.5 0.00 0.25 0.13 85 1010.4
20260506154006 15 322 4.8 14.5 0.00 0.25 0.13 85 1010.4
20260506153714 15 327 6.4 14.5 0.00 0.25 0.13 85 1010.4
20260506153217 15 335 6.4 14.5 0.00 0.25 0.13 85 1010.5
20260506152504 15 316 4.8 11.3 0.00 0.25 0.13 86 1010.5
20260506152006 15 309 6.4 19.3 0.00 0.25 0.13 86 1010.6
20260506151504 15 314 8.0 19.3 0.00 0.25 0.13 86 1010.5
20260506151004 15 318 4.8 11.3 0.00 0.25 0.13 86 1010.5
20260506150504 15 314 4.8 11.3 0.00 0.25 0.13 86 1010.5
20260506150005 15 318 6.4 12.9 0.00 0.25 0.13 86 1010.4
20260506145504 15 312 4.8 12.9 0.00 0.25 0.13 87 1010.4
20260506145004 15 302 3.2 11.3 0.00 0.25 0.13 87 1010.4
20260506144504 15 306 4.8 16.1 0.00 0.25 0.13 87 1010.5
20260506144216 15 316 4.8 16.1 0.00 0.25 0.13 87 1010.5
20260506143504 15 306 4.8 14.5 0.00 0.25 0.13 87 1010.5
20260506143004 15 304 3.2 14.5 0.00 0.25 0.13 87 1010.5
20260506142504 15 311 3.2 12.9 0.00 0.25 0.13 87 1010.5
20260506142004 15 305 4.8 16.1 0.00 0.25 0.13 86 1010.6
20260506141506 15 297 6.4 19.3 0.00 0.25 0.13 86 1010.7
20260506141004 15 312 8.0 19.3 0.00 0.25 0.13 86 1010.6
20260506140504 15 317 6.4 14.5 0.00 0.25 0.13 86 1010.7
20260506140005 15 304 8.0 19.3 0.00 0.25 0.13 85 1010.8
20260506135718 15 304 8.0 19.3 0.00 0.25 0.13 85 1010.8
20260506135004 15 321 6.4 14.5 0.00 0.25 0.13 85 1010.8
20260506134504 15 326 4.8 14.5 0.00 0.25 0.13 85 1010.8
20260506134006 15 321 4.8 17.7 0.00 0.25 0.13 86 1010.9
20260506133505 15 335 8.0 22.5 0.00 0.25 0.13 85 1011.0
20260506133004 15 343 9.7 22.5 0.00 0.25 0.13 84 1010.9
20260506132504 15 337 8.0 16.1 0.00 0.25 0.13 85 1010.9
20260506132005 15 347 4.8 9.7 0.00 0.25 0.13 84 1011.0
20260506131505 15 357 1.6 6.4 0.00 0.25 0.13 85 1011.0
20260506131004 15 323 1.6 9.7 0.00 0.25 0.13 85 1011.0
20260506130504 15 336 4.8 11.3 0.00 0.25 0.13 84 1010.9
20260506130216 15 341 4.8 11.3 0.00 0.25 0.13 84 1010.9
20260506125504 15 339 4.8 8.0 0.00 0.25 0.13 85 1011.1
20260506125005 15 332 4.8 9.7 0.00 0.25 0.13 85 1011.1
20260506124715 15 337 6.4 20.9 0.00 0.25 0.13 85 1011.2
20260506124006 15 326 8.0 20.9 0.00 0.25 0.13 84 1011.0
20260506123504 15 319 6.4 16.1 0.03 0.25 0.13 85 1011.2
20260506123004 15 313 6.4 16.1 0.03 0.25 0.13 85 1011.2
20260506122504 15 313 8.0 16.1 0.03 0.25 0.13 86 1011.2
20260506122004 15 327 6.4 14.5 0.03 0.25 0.13 87 1011.4
20260506121504 15 332 8.0 12.9 0.03 0.25 0.13 87 1011.4
20260506121004 15 324 6.4 12.9 0.03 0.25 0.13 87 1011.4
20260506120505 15 333 3.2 8.0 0.03 0.25 0.13 89 1011.4
20260506120007 15 326 1.6 8.0 0.03 0.25 0.13 88 1011.4
20260506115504 15 314 1.6 6.4 0.03 0.25 0.13 87 1011.4
20260506115005 15 315 3.2 8.0 0.03 0.25 0.13 87 1011.4
20260506114504 15 318 3.2 9.7 0.03 0.25 0.13 87 1011.5
20260506114005 15 336 4.8 9.7 0.03 0.25 0.13 87 1011.5
20260506113716 15 337 3.2 8.0 0.00 0.23 0.10 86 1011.6
20260506113006 15 316 3.2 11.3 0.00 0.23 0.10 85 1011.6
20260506112717 15 314 4.8 16.1 0.00 0.23 0.10 85 1011.6
20260506112004 15 313 4.8 16.1 0.00 0.23 0.10 85 1011.7
20260506111504 15 322 6.4 16.1 0.00 0.23 0.10 84 1011.8
20260506111216 15 325 4.8 16.1 0.00 0.23 0.10 85 1011.8
20260506110509 15 310 4.8 14.5 0.00 0.23 0.10 84 1011.8
20260506110217 15 310 4.8 14.5 0.00 0.23 0.10 84 1011.8
20260506105504 15 311 4.8 11.3 0.00 0.23 0.10 84 1012.0
20260506105005 15 305 4.8 12.9 0.03 0.23 0.10 85 1012.3
20260506104504 15 314 4.8 14.5 0.03 0.23 0.10 84 1012.1
20260506104004 15 2 6.4 20.9 0.03 0.23 0.10 83 1012.1
20260506103504 15 359 8.0 20.9 0.03 0.23 0.10 84 1012.1
20260506103006 15 331 6.4 14.5 0.03 0.23 0.10 85 1012.2
20260506102504 15 324 4.8 14.5 0.03 0.23 0.10 86 1012.3
20260506102004 15 327 4.8 14.5 0.03 0.23 0.10 86 1012.2
20260506101504 15 342 3.2 11.3 0.03 0.23 0.10 86 1012.2
20260506101004 15 13 3.2 11.3 0.03 0.23 0.10 86 1012.3
20260506100504 15 342 3.2 8.0 0.03 0.23 0.10 86 1012.4
20260506100007 15 305 3.2 8.0 0.03 0.23 0.10 86 1012.4
20260506095504 15 313 3.2 8.0 0.03 0.23 0.10 87 1012.4
20260506095006 15 139 4.8 16.1 0.00 0.23 0.08 86 1012.4
20260506094504 15 133 6.4 17.7 0.00 0.23 0.08 85 1012.4
20260506094004 15 138 4.8 17.7 0.00 0.23 0.08 86 1012.4
20260506093717 15 128 4.8 16.1 0.00 0.23 0.08 85 1012.3
20260506093004 15 99 3.2 8.0 0.00 0.23 0.08 85 1012.3
20260506092506 15 34 1.6 6.4 0.00 0.23 0.08 86 1012.3
20260506092004 16 353 1.6 6.4 0.00 0.23 0.08 86 1012.4
20260506091504 15 314 3.2 12.9 0.00 0.23 0.08 86 1012.4
20260506091004 15 304 3.2 12.9 0.00 0.23 0.08 86 1012.4
20260506090504 15 288 3.2 11.3 0.00 0.23 0.08 87 1012.4
20260506090218 15 283 3.2 11.3 0.00 0.23 0.08 86 1012.4
20260506085504 15 289 3.2 8.0 0.00 0.23 0.08 85 1012.3
20260506085214 15 299 3.2 8.0 0.00 0.23 0.08 86 1012.3
20260506084717 15 301 1.6 6.4 0.00 0.23 0.08 87 1012.4
20260506084006 15 277 1.6 8.0 0.00 0.23 0.08 88 1012.1
20260506083504 15 260 1.6 8.0 0.00 0.23 0.08 89 1012.1
20260506083004 15 219 0.0 3.2 0.00 0.23 0.08 90 1012.1
20260506082504 14 179 1.6 4.8 0.00 0.23 0.08 90 1012.1
20260506082004 14 135 1.6 4.8 0.00 0.23 0.08 90 1012.1
20260506081504 14 131 3.2 6.4 0.00 0.23 0.08 90 1012.1
20260506081004 14 129 3.2 6.4 0.00 0.23 0.08 90 1012.1
20260506080504 14 109 1.6 4.8 0.03 0.23 0.08 91 1012.1
20260506073506 13 41 1.6 3.2 0.08 0.23 0.08 92 1012.4
20260506073004 13 53 0.0 3.2 0.08 0.23 0.08 92 1012.4
20260506072504 13 344 1.6 4.8 0.08 0.23 0.08 92 1012.4
20260506072004 13 352 1.6 4.8 0.08 0.23 0.08 91 1012.4
20260506071504 13 10 0.0 4.8 0.08 0.23 0.08 91 1012.4
20260506071005 13 349 3.2 8.0 0.08 0.23 0.08 90 1012.5
20260506070504 13 340 3.2 8.0 0.05 0.20 0.05 89 1012.5